www.pogodaiklimat.ru

Погода и климат >> Архив погоды >> Россия >> Краснодарский край >> Тимашевск


ПОГОДА в Тимашевске

  • Прогноз погоды в Тимашевске
  • Монитор погоды в Тимашевске

АРХИВ ПОГОДЫ в Тимашевске

Время (UTC), дата Ветер
(напр.,м/с)
 
Видим.   Явления Облачность Т
(С)
Тd
(С)
f
(%)
Тe
(С)
Тes
(С)
Комфортность P
(гПа)
Po
(гПа)
Тmin
(С)
Tmax
(С)
R
(мм)
R24
(мм)
S
(см)
18 16.07 ЮЗ 1
{10}
10 км {ливн. осадки} ясно +19.5 +15.0 75 +22 +22 комфорт 1009.2 1006.6
21 16.07 Ю 1 10 км ясно +18.0 +15.4 85 +19 +19 1009.0 1006.4
00 17.07 Ю 1 10 км ясно +17.2 +15.5 90 +18 +18 1008.7 1006.2
03 17.07 Ю 1 10 км ясно +17.1 +15.9 93 +18 +19 1008.9 1006.3 +16.2
06 17.07 ЮЗ 1 10 км 6/0
[Ci sp]
+23.7 +18.5 73 +28 +38 душно 1008.7 1006.2
09 17.07 З 1 10 км 10/3 600 м
[Cu med, cong Ci fib]
+28.1 +16.0 48 +31 +43 душно 1007.9 1005.4
12 17.07 З 2 10 км 10/8 600 м
[Cu med, cong Ci sp]
+29.4 +13.4 37 +31 +33 жарко 1007.0 1004.6
15 17.07 С 3 10 км 8/5 600 м
[Cu med, cong Ci fib]
+27.0 +14.7 47 +30 +30 душно 1006.9 1004.4 +29.5
18 17.07 С 1 10 км 3/0
[Ci fib]
+22.5 +12.8 54 +25 +25 комфорт 1007.2 1004.7
21 17.07 С 1 10 км ясно +19.6 +16.1 80 +23 +23 комфорт 1007.2 1004.6
00 18.07 С 1 10 км 9/8 600 м
[Cu Sc Ci]
+19.1 +15.0 77 +22 +22 комфорт 1007.2 1004.6
03 18.07 С 2 10 км 10/10 600 м
[Cu Sc]
+19.6 +14.2 71 +22 +22 комфорт 1007.2 1004.6 +18.5
06 18.07 С 2 10 км 10/10 600 м
[Sc]
+22.8 +13.5 56 +26 +26 жарко 1007.2 1004.7
09 18.07 СВ 5 10 км 10/6 600 м
[Sc Ac lent]
+24.3 +14.8 55 +27 +28 жарко 1008.1 1005.6
12 18.07 В 4 10 км 10/0
[Ac lent]
+23.2 +17.1 69 +28 +30 душно 1009.0 1006.4
15 18.07 СВ 3 10 км 10/0
[Ci ing]
+23.1 +16.7 67 +28 +29 душно 1009.7 1007.1 +24.6
18 18.07 СВ 1 10 км 10/0
[Ci sp]
+20.6 +17.3 81 +25 +25 комфорт 1010.9 1008.4
21 18.07 штиль 0 10 км ясно +17.7 +16.2 91 +18 +18 1011.9 1009.3
00 19.07 В 1 4000 м дымка ясно +16.2 +15.3 94 +17 +17 1012.5 1009.9
03 19.07 штиль 0 4000 м ясно +15.7 +14.9 95 +15 +16 1013.7 1011.1 +15.1
06 19.07 С 1 10 км 10/0
[Ci]
+24.1 +17.5 67 +28 +37 душно 1014.5 1011.9
09 19.07 СВ 2 10 км 8/3 600 м
[Cu med, cong Ci sp]
+27.5 +16.1 50 +31 +42 душно 1014.5 1012.0
12 19.07 С 3 10 км 8/8 600 м
[Cu med, cong Ci fib]
+29.9 +11.0 31 +30 +32 жарко 1014.0 1011.5
15 19.07 СЗ 3 10 км 6/3 600 м
[Sc diur, vesp Ac cuf]
+29.0 +8.5 28 +29 +29 жарко 1014.5 1012.0 +30.3
18 19.07 СЗ 1 10 км 8/5 600 м
[Sc diur, vesp Ac cuf]
+24.1 +12.0 47 +26 +26 жарко 1015.9 1013.3
21 19.07 СЗ 1 10 км 10/10 600 м
[Sc]
+21.6 +13.9 62 +24 +24 комфорт 1016.9 1014.3
00 20.07 штиль 0 10 км 3/0
[Cc]
+17.9 +14.3 79 +18 +18 1017.1 1014.5
03 20.07 ЮЗ 1 10 км 4/0
[Ac trans]
+17.9 +14.3 79 +19 +20 1017.1 1015.3 +17.3
06 20.07 С 2 10 км 3/0
[Ac trans]
+25.2 +14.8 52 +28 +36 жарко 1018.2 1015.6
09 20.07 СВ 3 10 км ясно +30.1 +10.0 29 +30 +45 жарко 1017.4 1014.9
12 20.07 СВ 2 10 км 8/8 600 м
[Cu hum]
+31.6 +11.6 29 +32 +34 жарко 1016.6 1014.1
15 20.07 СВ 3 10 км 8/3 600 м
[Cu med, cong Ci fib]
+30.7 +12.0 32 +31 +32 жарко 1016.0 1013.5 +31.8
18 20.07 С 2 10 км 8/4 600 м
[Cu med, cong Ci fib]
+26.9 +12.3 40 +28 +28 жарко 1016.0 1013.5
21 20.07 СВ 2 10 км ясно +23.6 +9.5 41 +25 +25 комфорт 1016.5 1013.9
00 21.07 СВ 2 10 км 10/5 600 м
[Cu med, cong Ac lent Ci]
+22.5 +10.2 46 +24 +24 комфорт 1016.0 1013.5
03 21.07 СВ 2 10 км 9/4 600 м
[Cu Sc Ac cast Ci]
+21.8 +11.9 53 +24 +24 комфорт 1015.6 1013.0 +21.8
06 21.07 СВ 3 10 км 10/10 600 м
[Sc]
+24.7 +13.5 50 +27 +27 жарко 1015.7 1013.1
09 21.07 В 1 10 км 10/10 600 м
[Sc]
+28.6 +14.9 43 +31 +31 жарко 1015.0 1012.5
12 21.07 СВ 2 10 км слаб. ливневой дождь {гроза} 10/10 600 м
[Cb cap]
+20.8 +19.1 90 +26 +26 душно 1016.0 1013.5
15 21.07 С 1 10 км слаб. ливневой дождь 10/10 600 м
[Cb cap]
+21.4 +19.4 88 +26 +26 душно 1014.9 1012.3 +31.2 6
18 21.07 Ю 1 10 км гроза, ливневой дождь 10/10 600 м
[Cb cap]
+20.6 +19.4 93 +26 +26 душно 1017.1 1014.5
21 21.07 Ю 1 10 км в посл. час ливневой дождь {гроза} 10/10 600 м
[Cb cap]
+18.7 +17.8 95 +21 +21 комфорт 1017.3 1014.7
00 22.07 СВ 1 10 км {гроза, ливн. осадки} 3/0
[Ac cuf]
+17.2 +16.3 94 +18 +18 1017.7 1015.1
03 22.07 СВ 1 10 км ясно +17.4 +16.6 95 +18 +19 1017.4 1014.8 +16.6 16
06 22.07 В 2 10 км 3/3 600 м
[Cu hum]
+22.2 +17.8 76 +27 +34 душно 1017.1 1014.6
09 22.07 В 2 10 км 4/4 600 м
[Cu hum]
+26.7 +17.2 56 +31 +41 душно 1016.3 1013.8
12 22.07 СВ 3 10 км 3/3 600 м
[Cu hum]
+28.9 +16.5 47 +32 +40 душно 1015.6 1013.1
15 22.07 В 3 10 км ясно +28.7 +15.1 44 +31 +33 жарко 1014.8 1012.3 +29.3
18 22.07 штиль 0 10 км ясно +22.8 +17.7 73 +28 +28 душно 1014.8 1012.2
21 22.07 штиль 0 10 км ясно +20.1 +17.1 83 +23 +23 комфорт 1014.9 1012.3
00 23.07 штиль 0 10 км ясно +18.0 +16.2 89 +18 +18 1014.0 1011.4
03 23.07 штиль 0 10 км ясно +19.3 +17.8 91 +21 +22 комфорт 1013.0 1010.5 +17.0
06 23.07 В 1 10 км ясно +27.2 +17.7 56 +31 +43 душно 1012.5 1010.0
09 23.07 В 3 10 км 4/4 600 м
[Cu med, cong]
+29.9 +15.5 42 +33 +42 душно 1011.3 1008.8
12 23.07 В 4 10 км 6/6 600 м
[Cu med, cong]
+31.1 +13.8 35 +33 +36 душно 1009.7 1007.3
15 23.07 В 3 10 км 8/3 600 м
[Cu hum Ci fib]
+30.1 +14.4 38 +32 +33 жарко 1009.2 1006.7 +31.4

 

Местоположение метеостанции Тимашевск (Краснодарский край, Россия): широта 45.63 долгота 38.93 высота над уровнем моря 22 м.

В архиве по умолчанию представлена погода в Тимашевске за последнюю неделю. Архивные данные за месяц целиком и за предыдущие месяцы, начиная с января 2011 года, Вы можете получить, выбрав интересующий диапазон дат из раскрывающегося списка и нажав кнопку "Ввод!".


*Определитесь, кто Вы:
робот инопланетянин человек

Внимание! Время в таблицах - всемирное. Для получения местного времени необходимо прибавить поправку, которая равна 3 ч.

Смотрите также архив погоды в соседних городах и на ближайших метеорологических станциях:

Погода в Кореновске (Краснодарский край, Россия) (46 км)
Погода в Каневской (Краснодарский край, Россия) (49 км)
Погода в Краснодаре (Краснодарский край, Россия) (65 км)
Погода в Славянске-на-Кубани (Краснодарский край, Россия) (74 км)
Погода в Приморско-Ахтарске (Краснодарский край, Россия) (75 км)
Погода в Усть-Лабинске (Краснодарский край, Россия) (77 км)
Погода в Сосыке (Краснодарский край, Россия) (89 км)
Погода в Тихорецке (Краснодарский край, Россия) (93 км)
Погода в Староминская (Краснодарский край, Россия) (100 км)
Погода в Крымске (Краснодарский край, Россия) (107 км)

Пояснения к столбцам:

Ветер - указаны скорость ветра в м/с - средняя за 10 мин, порывы в срок и между сроками (в фигурных скобках) и направление, откуда дует ветер: С - северный, СВ - северо-восточный, В - восточный, ЮВ - юго-восточный, Ю - южный, ЮЗ - юго-западный, З - западный, СЗ - северо-западный.
Видимость - горизонтальная дальность видимости в метрах или километрах. При видимости от 1 до 10 км при отсутствии осадков обычно наблюдается дымка, при ухудшении видимости до 1 км и менее - туман. В сухую погоду видимость может ухудшаться дымом, пылью или мглою.
Явления - указаны атмосферные явления, наблюдавшиеся в срок или в последний час перед сроком; фигурными скобками обозначены явления, наблюдавшиеся между сроками (за 1-3 часа до срока); квадратными скобками обозначены град или гололедные отложения с указанием их диаметра в мм.
Облачность - указаны через наклонную черту общая и нижняя облачность в баллах и высота нижней границы облаков в метрах; квадратными скобками обозначены формы облаков: Ci - перистые, Cs - перисто-слоистые, Cc - перисто-кучевые, Ac - высококучевые, As - высокослоистые, Sc - слоисто-кучевые, Ns - слоисто-дождевые, Cu - кучевые, Cb - кучево-дождевые. Подробнее классификацию облаков см. в Атласе облаков (PDF).
T - Температура воздуха - температура, измеренная на высоте 2 м над землей.
Td - Температура точки росы - температура, при понижении до которой содержащийся в воздухе водяной пар достигнет насыщения.
f - Относительная влажность воздуха - влажноcть воздуха, измеренная на высоте 2 м над землей.
Te - Эффективная температура - температура, которую ощущает одетый по сезону человек в тени. Характеристика душности погоды. При расчете учитывается влияние влажности воздуха и скорости ветра на теплоощущения человека.
Tes - Эффективная температура на солнце - температура, которую ощущает человек, с поправкой на солнечный нагрев. Характеристика знойности погоды. Зависит от высоты солнца над горизонтом, облачности и скорости ветра. Ночью, в пасмурную погоду, а также при ветре 12 м/с и более поправка равна нулю.
P - Атмосферное давление - приведенное к уровню моря атмосферное давление.
Po - Атмосферное давление - измеренное на уровне метеостанции атмосферное давление.
Tmin - Минимальная температура - минимум температуры воздуха на высоте 2 м над землей.
Tmax - Максимальная температура - максимум температуры воздуха на высоте 2 м над землей.
R - Количество осадков - Количество выпавших осадков за период времени, мм. При наведении курсора мыши на число - период времени, за который выпало указанное количество осадков.
R24 - Количество осадков - Количество выпавших осадков за 24 часа, мм.
S - Снежный покров - Высота снежного покрова, см. При наведении курсора мыши на число - состояние снежного покрова и степень покрытия местности в баллах.